Hastings, NE

2:25 PM CDT on July 21, 2017 (GMT -0500)
West 12th Street | | Change Station
Active Advisory: Heat Advisory

Elev 1934 ft 40.60 °N, 98.40 °W | Updated 1 second ago

Clear
Clear
93.9 °F
Feels Like 111 °F
N
4.0
Wind Variable Wind from East
Gusts 14.0 mph

Today
High -- | Low -- °F
--% Chance of Precip.
Yesterday
High -- | Low -- °F
Precip. -- in
Pressure 29.78 in
Visibility 10.0 miles
Clouds Clear
Heat Index 111 °F
Dew Point 78 °F
Humidity 61%
Rainfall 0.00 in
Snow Depth Not available.
6:20 AM 8:58 PM
Waning Crescent, 4% visible
METAR KHSI 211853Z AUTO 21010G17KT 10SM CLR 33/21 A2984 RMK AO2 SLP083 T03280206
Pressure 29.78 in
Visibility 10.0 miles
Clouds Clear
Heat Index 111 °F
Dew Point 78 °F
Humidity 61%
Rainfall 0.00 in
Snow Depth Not available.
6:20 AM 8:58 PM
Waning Crescent, 4% visible
METAR KHSI 211853Z AUTO 21010G17KT 10SM CLR 33/21 A2984 RMK AO2 SLP083 T03280206

Get Your Daily Forecast Email!

Thanks for signing up!

Be on the lookout for a verification email in your inbox.

You'll start receiving severe weather alerts in your inbox..

×

10-Day Weather Forecast

Almanac

Astronomy

Jul. 21, 2017 Rise Set
Actual Time
Civil Twilight
Nautical Twilight
Astronomical Twilight
Moon
Length of Visible Light
Length of Day
Tomorrow will be .
, % of the Moon is Illuminated

Today's Extremes

State Highs State Lows

Community

WunderPhotos

Category 6

Welcome to Category 6. This is the collective home for Weather Underground's featured writeups by Dr. Jeff Masters (right), Bob Henson (left), Chris Burt, and other regular contributors.

Nearby

Air Quality

  Air Quality AQ Index Pollutant
Not available.

Snow Depth

Station Depth Elevation

Earthquake Activity

City Distance Mag. Time & Date
Minimum magnitude displayed is 2.5.

Coastal Water Temperatures

Place Temperature

Stations

Nearby Weather Stations

Station Location Temp. Windchill Dew Point Humidity Wind Precip. Elev Updated Type
                   

Watches & Warnings

Heat Advisory
Issued: 11:52 AM CDT Jul. 21, 2017 – National Weather Service

... Heat advisory remains in effect until 8 PM CDT this evening...

* heat Index... Peak afternoon heat index of 100 to 107 degrees.

* Timing... expect the most dangerous heat through the early
evening hours today.

* Impacts... prolonged exposure to hot weather may lead to heat
related illnesses if precautions are not taken.

Precautionary/preparedness actions...

A heat advisory means that a period of hot temperatures is
expected. The combination of hot temperatures and high humidity
will combine to create a situation in which heat illnesses are
possible. Drink plenty of fluids, stay in an air-conditioned
room, stay out of the sun, and check up on relatives and
neighbors.